GEFSNGP_500_meanwind_024.txt.gz
Wind_Speed
31 33 34 35 35 36 37 37 36 37 38 40 42 43 41 40 39 37 36 37 38 39 41 43 44 45 45 44 45 46 47 47 48 49 50 51 52 53 55 57 59 60 61 61
36 37 38 38 38 37 38 39 39 40 41 41 42 42 41 40 40 40 39 40 41 42 43 43 44 44 45 47 49 50 50 50 50 50 50 50 51 53 54 55 56 57 57 57
38 38 40 42 41 41 41 41 40 41 41 42 42 42 41 40 39 39 40 40 41 43 44 45 46 49 51 52 52 51 50 50 49 49 49 50 51 52 53 53 53 53 53 53
37 39 40 38 38 38 38 38 38 39 39 40 39 39 39 39 39 39 40 42 43 44 45 47 49 50 50 51 51 51 50 49 48 48 48 48 49 50 50 49 49 49 49 50
32 33 35 36 34 32 32 32 33 33 33 34 36 36 37 36 37 38 39 40 42 44 46 48 49 50 51 51 50 49 47 46 46 45 46 46 47 47 47 46 47 47 48 48
26 27 28 29 29 29 30 31 30 32 33 34 35 37 37 37 38 40 41 43 45 47 49 50 50 50 49 48 46 45 44 43 43 43 43 44 44 44 44 45 46 46 46 47
21 22 23 24 24 25 26 27 29 31 33 34 36 37 38 39 40 42 43 44 45 46 46 46 45 45 44 43 42 42 42 42 41 41 41 42 42 43 44 44 44 45 45 45
17 19 19 20 21 22 22 23 26 28 30 31 33 34 36 37 38 39 39 40 41 41 42 42 41 41 41 40 40 39 39 38 39 39 40 40 41 42 42 43 43 43 43 41
15 17 16 17 19 20 22 23 24 25 27 29 30 31 32 33 35 36 37 38 38 39 39 39 38 38 37 37 36 36 36 37 37 38 38 39 40 41 41 41 40 39 37 35
14 14 16 16 17 19 21 22 23 25 26 28 29 30 31 32 33 34 34 35 35 35 35 34 33 32 32 32 32 33 34 35 36 37 38 39 39 39 38 37 35 33 31 29
14 15 16 17 18 19 21 22 23 25 26 27 28 29 30 30 30 30 30 30 29 28 27 26 26 27 28 29 30 31 33 35 36 37 37 37 36 34 32 30 29 28 27 25
14 15 16 16 18 19 20 21 22 23 24 25 25 25 25 25 24 24 24 23 22 21 21 22 23 24 26 27 29 32 33 34 34 33 32 31 30 28 27 26 25 24 22 20
13 13 13 14 15 15 16 17 18 18 19 19 19 18 18 17 17 17 16 16 16 16 17 19 21 23 25 27 29 30 31 31 30 29 27 26 24 23 22 21 19 17 16 15
12 12 12 12 12 11 12 12 12 11 11 11 11 11 11 10 10 10 10 11 12 14 16 18 21 23 25 26 27 28 27 26 25 24 22 21 19 18 16 15 14 13 12 11
10 9 9 8 7 7 7 6 5 4 4 4 4 4 5 5 5 6 7 9 11 14 16 19 21 23 24 25 25 24 23 21 20 19 17 16 14 12 11 10 9 9 9 7
8 7 6 5 5 5 5 4 3 2 1 1 1 1 2 3 4 5 7 10 12 15 17 20 22 23 24 24 22 21 19 18 16 15 14 12 10 9 8 7 7 8 8 9
5 5 5 5 5 6 6 6 6 5 4 4 5 6 6 6 7 9 10 12 14 16 19 21 23 24 23 22 21 19 17 16 14 13 11 10 8 8 8 8 9 10 12 14
3 3 4 4 5 6 7 7 7 7 8 8 9 9 9 10 10 11 12 14 16 18 21 23 24 24 23 21 20 18 16 15 14 12 11 10 10 10 11 12 13 15 16 17
2 1 3 3 4 5 6 6 7 8 10 10 11 11 11 11 12 13 14 16 18 20 23 24 24 24 23 22 20 18 16 15 14 13 13 13 13 14 15 16 17 17 17 17
3 1 1 2 3 4 5 6 7 9 10 11 11 11 11 12 13 15 16 18 20 22 24 25 25 25 24 23 21 19 18 17 16 15 15 16 16 17 17 18 18 18 17 16
5 3 2 2 3 4 5 6 7 9 10 10 11 11 12 13 14 16 17 19 21 23 24 25 26 26 26 25 23 21 19 18 17 17 17 17 18 18 18 18 18 17 16 16
7 5 4 4 4 4 5 6 7 9 9 9 10 10 12 13 15 16 18 19 21 23 24 25 27 27 27 26 24 23 22 20 18 17 17 17 17 17 17 17 17 16 16 15
9 8 7 6 5 5 5 6 7 8 8 9 9 10 11 13 14 15 17 19 21 23 24 26 27 28 27 26 25 24 22 20 19 17 17 16 16 16 16 16 16 17 17 16
12 10 9 8 7 6 6 7 7 8 8 8 8 9 11 12 13 14 16 18 20 22 24 26 27 28 28 28 27 25 23 21 18 16 15 15 15 16 16 16 16 16 17 17
14 13 11 10 9 8 8 8 8 8 8 8 8 8 10 11 12 13 15 17 19 20 23 25 26 28 29 29 28 27 26 23 20 16 14 13 14 15 15 16 17 17 17 18
16 16 14 12 11 10 10 9 9 9 9 8 8 8 9 10 11 12 14 16 17 19 21 23 24 26 28 29 30 30 28 27 25 21 18 16 15 15 15 16 16 17 18 18
17 17 16 14 13 12 11 11 11 11 10 10 9 8 8 9 9 11 13 14 16 18 20 21 22 24 26 28 30 31 31 31 30 28 25 22 20 18 18 17 17 17 18 18

GEFSNGP_500_meanwind_030.txt.gz
Wind_Speed
23 25 25 25 26 27 30 32 30 32 34 35 34 34 34 35 36 37 37 38 39 40 40 41 42 43 44 46 46 46 46 47 48 48 49 51 52 53 53 54 54 55 55 55
25 26 27 27 28 28 30 32 33 35 37 38 37 37 37 38 38 40 41 41 41 41 42 43 44 44 45 44 44 44 45 46 48 49 51 52 53 54 55 55 55 54 54 54
24 26 27 29 31 31 31 32 33 35 37 38 39 39 39 40 40 41 42 42 42 42 42 42 42 42 41 41 42 44 46 48 50 51 52 54 54 54 54 53 53 53 53 53
20 22 25 29 29 30 31 33 34 36 37 38 38 39 39 39 39 40 40 40 39 38 39 40 40 40 41 43 44 47 49 50 51 52 52 52 52 51 51 52 52 52 52 52
16 18 22 25 25 26 28 30 32 33 34 35 36 37 38 38 38 37 36 36 36 37 38 39 39 40 42 44 46 48 49 50 50 50 50 50 50 50 50 51 51 51 51 50
13 14 19 21 21 22 23 27 27 28 29 30 31 33 33 33 33 32 32 34 35 36 37 39 40 42 44 45 46 47 48 48 48 48 48 49 49 49 49 49 49 49 49 48
12 13 15 15 16 17 21 23 23 24 26 27 28 29 29 29 30 31 32 34 36 38 39 40 41 42 43 44 45 45 45 45 46 46 46 46 46 46 47 47 47 47 47 47
11 12 13 12 12 15 18 19 20 21 23 24 25 26 27 28 29 31 32 34 35 37 38 39 40 41 41 41 42 42 42 42 42 42 43 43 44 45 45 45 45 45 45 44
10 11 11 12 12 14 16 18 19 21 22 23 24 25 27 28 29 30 31 33 34 35 36 37 37 38 38 38 38 38 38 38 39 40 41 41 42 42 42 42 42 41 40 38
10 10 11 12 12 13 14 16 18 20 22 23 24 25 26 26 27 29 30 30 31 32 32 32 33 33 33 33 34 34 35 36 37 37 38 38 39 39 38 37 36 35 33 32
10 11 11 11 12 13 15 16 18 19 21 21 23 23 24 24 25 25 26 27 27 27 27 27 28 28 29 30 31 32 33 34 34 35 35 35 34 33 32 31 29 28 27 25
10 10 11 12 12 13 14 15 16 17 18 19 20 20 20 20 21 21 21 22 21 22 22 23 24 26 27 28 29 31 31 32 32 32 31 29 28 27 26 24 22 21 19 18
9 10 10 11 11 11 12 13 13 14 15 15 16 16 16 16 16 16 16 17 17 18 20 21 23 25 26 28 28 29 28 28 27 26 24 23 21 20 18 16 15 14 12 11
9 9 9 8 8 8 8 8 8 8 9 9 10 10 10 10 11 12 12 14 15 17 19 22 24 25 25 26 25 24 23 22 21 19 18 16 15 13 12 11 9 8 7 5
7 7 6 6 5 5 5 5 5 4 4 4 4 5 6 7 8 9 11 13 15 18 20 22 23 23 22 22 20 19 17 16 15 14 12 11 10 9 7 6 6 6 6 7
5 5 5 5 5 4 4 4 4 3 2 1 1 2 3 5 7 9 11 13 15 17 19 20 20 20 19 19 17 15 14 13 12 10 9 8 8 7 7 8 8 9 10 12
4 4 3 4 4 3 3 3 3 4 3 3 3 3 4 6 8 10 12 14 15 17 18 19 19 18 18 17 16 15 13 12 11 10 9 9 9 9 10 11 12 13 14 15
4 2 2 3 3 2 3 4 5 5 5 5 4 5 6 7 9 11 12 14 16 17 18 19 19 18 18 17 16 15 13 12 12 11 11 11 12 12 13 13 14 14 15 15
4 2 1 1 2 3 3 4 5 5 5 5 5 6 7 9 11 12 13 15 16 18 19 19 19 19 18 17 16 15 14 13 13 13 13 13 13 14 15 15 15 15 14 14
4 3 2 1 2 3 3 4 4 5 5 5 6 7 8 10 11 13 14 15 17 19 19 20 19 19 18 17 16 15 15 14 13 14 14 14 15 15 15 15 14 14 14 13
5 4 4 3 3 3 3 3 3 4 4 5 6 7 9 10 12 13 15 16 18 19 20 20 19 19 18 17 16 15 14 14 14 13 14 14 14 14 14 13 13 13 13 13
7 6 5 5 4 4 4 3 3 4 4 5 6 7 8 10 11 13 15 16 18 20 20 21 20 19 18 17 15 14 13 13 13 13 13 13 13 13 13 13 12 12 12 11
9 8 7 6 6 5 5 5 5 4 4 4 5 6 7 9 11 12 14 16 18 19 21 21 21 20 19 17 15 13 12 12 12 13 13 13 13 12 12 12 12 12 12 12
11 10 9 8 8 7 7 7 6 5 4 4 4 5 6 8 10 12 13 15 17 19 21 22 21 21 20 18 16 13 11 11 11 12 12 12 12 12 13 13 13 13 13 13
12 12 11 10 10 9 9 8 8 6 5 4 3 3 5 7 9 11 12 14 16 18 20 22 22 22 22 20 18 15 13 11 11 11 12 12 12 13 13 14 14 15 15 15
14 14 13 12 11 11 11 10 9 8 7 6 4 3 3 5 7 9 11 13 15 17 19 21 22 23 24 23 22 20 17 15 13 13 13 13 13 14 14 14 15 16 16 16
15 15 14 14 13 12 12 11 11 10 9 8 6 4 3 4 6 8 10 12 14 16 18 20 21 22 23 23 24 23 22 20 17 16 15 15 15 15 15 15 16 16 17 17

GEFSNGP_500_meanwind_036.txt.gz
Wind_Speed
17 17 15 17 23 24 25 27 26 28 32 35 36 35 35 35 35 34 34 34 35 37 39 40 41 42 43 45 46 47 48 49 51 52 52 53 53 54 54 54 55 56 56 57
17 16 16 16 18 21 21 22 26 29 33 34 35 35 33 32 31 31 31 34 37 39 41 42 43 45 46 47 48 49 50 51 52 52 52 53 53 53 54 55 55 56 57 58
16 18 19 20 23 24 26 27 28 31 34 36 37 38 36 34 32 31 33 36 38 40 42 43 44 45 47 48 49 49 49 49 49 49 50 51 51 51 52 54 55 56 57 57
12 16 20 25 27 26 28 30 30 33 36 42 44 43 41 39 37 36 37 37 37 38 40 40 41 41 42 43 42 43 44 44 45 47 48 49 50 51 52 53 54 55 55 55
10 11 18 24 26 27 27 29 29 30 32 35 38 39 40 40 39 39 38 37 36 34 34 36 38 39 40 40 40 41 42 43 44 46 48 49 50 51 51 52 53 53 52 52
11 14 18 21 22 23 24 29 30 30 30 32 34 34 34 34 34 35 36 36 36 36 36 37 37 38 40 40 40 41 42 43 44 45 47 48 48 49 49 50 50 50 50 49
13 15 18 19 20 21 22 24 25 25 26 27 29 30 29 29 29 29 30 31 32 34 35 36 37 37 38 40 40 41 42 43 43 44 44 45 46 47 47 47 47 47 46 46
14 15 16 16 17 18 19 20 21 22 22 23 24 24 25 26 27 28 29 31 32 33 34 35 35 36 37 38 39 40 40 41 41 41 42 42 43 43 44 44 43 43 42 42
15 15 15 15 15 16 17 18 19 19 20 20 20 21 23 24 25 27 28 28 29 30 31 32 33 34 35 36 36 37 37 38 38 39 40 40 40 40 40 40 40 39 38 38
15 15 13 13 14 15 15 16 16 18 19 20 20 20 21 23 24 24 24 25 26 27 29 30 31 32 33 34 34 35 36 37 37 37 37 37 37 37 36 35 34 33 32 31
15 15 14 12 12 13 14 15 15 16 17 18 19 19 20 20 20 21 22 23 24 25 26 27 29 30 31 32 33 34 34 35 34 34 33 32 32 31 30 29 27 26 24 23
14 14 13 13 12 12 13 13 14 14 15 15 16 17 18 18 18 19 20 21 22 23 25 26 28 29 30 30 31 31 30 30 29 28 27 27 25 24 23 22 21 20 18 15
14 14 13 12 11 11 11 11 12 12 13 13 14 15 15 15 15 17 18 19 20 22 23 25 26 27 27 27 27 26 25 24 23 22 22 21 19 17 16 16 15 14 13 11
14 13 12 11 10 10 10 10 10 10 10 11 11 11 12 12 14 15 16 18 19 21 22 23 23 23 23 23 23 22 20 19 18 18 17 16 15 13 12 11 11 11 10 10
13 12 10 10 9 9 8 8 9 8 8 8 8 8 10 11 13 14 16 17 18 19 20 20 20 20 20 20 19 19 18 16 15 15 14 13 12 12 11 10 10 10 10 11
13 11 10 9 8 8 8 7 7 6 6 6 7 8 9 11 13 14 15 16 17 18 18 18 18 18 18 18 17 16 15 15 14 14 13 12 12 11 11 11 11 12 12 13
12 11 9 8 8 7 7 6 5 5 5 6 7 8 10 11 13 14 15 16 16 17 16 16 16 16 16 16 16 15 14 14 14 13 13 13 12 12 12 12 13 13 13 14
12 10 9 8 7 7 6 5 4 4 4 5 7 8 10 11 13 14 15 15 16 16 16 16 16 16 15 15 15 14 14 13 13 13 13 13 13 12 12 12 13 14 14 14
11 10 8 7 6 5 5 4 3 3 4 5 7 8 10 12 13 14 15 15 16 15 15 16 16 15 14 14 13 13 12 12 12 12 13 13 12 12 12 12 12 13 13 13
11 9 8 7 6 5 4 3 3 3 4 5 7 8 10 12 13 14 16 16 17 16 16 16 15 14 13 12 11 11 11 11 12 12 12 12 11 11 11 11 11 12 12 12
11 9 8 7 6 5 4 3 3 2 4 5 6 8 10 12 13 14 16 17 17 18 17 17 15 13 12 11 11 10 10 11 11 11 11 11 11 10 10 10 10 10 10 10
10 9 8 7 6 6 4 3 2 2 3 4 5 7 10 12 13 15 16 17 18 18 18 17 16 14 12 11 10 9 9 10 10 10 10 10 10 10 9 9 9 9 9 9
11 9 8 8 7 6 6 4 3 2 2 3 5 6 9 11 13 14 16 18 19 19 19 19 17 15 13 11 9 8 9 10 10 10 10 10 10 10 9 9 9 9 9 9
11 10 9 8 8 7 7 6 4 3 2 3 4 5 8 10 12 14 16 18 19 20 20 20 19 17 15 12 10 9 9 10 10 10 10 10 10 10 10 10 9 9 9 9
11 10 10 10 9 8 8 7 6 5 3 2 3 4 6 8 11 13 16 17 18 19 19 20 19 18 16 15 14 11 10 10 10 11 11 11 11 11 11 11 10 10 10 10
11 11 10 10 10 9 9 8 7 6 5 4 3 3 5 7 9 12 14 16 17 17 18 18 19 19 20 20 17 14 11 11 11 10 11 11 11 11 12 12 12 12 12 12
12 12 11 11 10 10 9 9 8 7 6 5 4 2 3 5 7 10 12 15 16 17 18 18 19 19 20 21 21 18 15 14 13 12 11 11 11 12 12 13 13 14 14 14

GEFSNGP_500_meanwind_042.txt.gz
Wind_Speed
19 20 22 24 23 25 28 30 32 34 38 41 42 43 41 38 36 34 32 33 37 38 38 39 40 41 42 44 46 46 47 48 50 52 53 54 55 56 57 58 60 61 61 60
16 18 20 22 23 23 26 29 31 34 36 38 38 40 40 39 35 34 33 33 33 33 35 37 37 39 41 43 45 46 47 48 50 52 53 54 56 56 56 56 56 57 57 57
13 16 17 20 21 23 23 26 28 29 32 34 34 33 34 34 35 34 33 32 32 32 33 34 36 37 37 37 38 41 44 46 47 49 51 52 52 52 52 52 52 53 53 54
10 12 15 16 16 18 21 22 22 24 26 27 28 28 29 30 31 32 32 32 32 32 32 33 34 34 35 37 38 38 40 42 44 46 48 48 49 49 49 49 49 50 51 51
8 10 11 13 15 16 19 20 20 21 22 24 26 27 27 27 28 28 28 28 29 29 29 30 31 33 34 36 37 39 40 41 42 43 45 45 45 46 47 47 47 48 49 50
8 9 9 11 13 15 16 18 18 19 20 21 21 22 23 23 24 25 25 26 27 27 28 29 31 32 34 35 36 36 37 38 39 40 41 42 43 44 44 45 45 46 46 46
9 8 8 9 11 13 15 16 16 17 17 17 18 19 19 20 21 22 22 23 24 25 26 28 29 30 31 32 33 34 34 35 36 37 38 39 40 41 42 42 43 43 43 43
11 9 8 9 10 12 13 13 14 14 14 14 14 15 15 16 17 18 19 20 22 23 24 25 27 27 28 29 30 30 31 32 34 35 36 36 37 38 38 38 38 38 38 38
11 10 9 9 9 10 11 11 11 12 12 12 12 13 14 14 15 16 18 19 20 21 22 23 24 25 26 27 27 28 29 30 31 31 32 32 33 33 33 33 32 32 31 30
12 11 10 9 9 9 10 9 9 10 10 11 11 12 13 13 14 15 16 17 18 20 20 22 23 23 24 24 24 25 25 26 27 27 28 28 28 27 27 27 26 25 24 22
13 12 11 10 9 9 8 9 9 9 9 10 10 11 12 12 13 14 15 16 17 18 19 20 20 20 21 21 21 22 23 24 24 24 24 24 23 22 21 20 20 19 18 16
14 13 12 11 10 9 8 8 8 9 9 9 9 10 11 12 12 13 14 15 16 17 17 18 18 18 18 19 19 20 21 21 20 20 20 20 19 19 18 17 16 15 14 13
16 14 12 11 10 9 9 8 8 8 8 8 9 10 10 10 10 11 13 15 15 16 16 16 16 16 16 17 18 18 18 18 17 17 17 16 16 16 15 14 13 12 11 10
16 14 12 11 10 9 8 8 8 8 8 8 9 9 9 10 11 13 14 14 15 15 15 15 15 15 15 15 16 16 16 16 15 15 14 13 13 13 12 12 12 11 10 9
16 15 13 11 10 9 8 8 7 7 7 8 8 9 9 11 12 13 14 15 15 14 14 14 14 14 14 14 14 14 14 14 14 13 13 12 12 11 11 11 11 11 10 11
17 15 13 11 10 8 8 7 7 6 7 8 8 9 10 12 13 14 14 14 14 14 14 14 14 14 14 13 13 13 12 13 13 12 12 12 11 11 11 11 11 11 11 11
17 15 13 11 9 8 7 7 6 6 7 8 8 10 11 12 14 14 15 15 15 15 15 14 14 13 13 13 12 12 12 11 11 11 11 11 11 11 11 11 11 11 12 12
17 14 12 11 9 7 7 6 6 6 7 8 9 10 12 13 14 15 15 16 16 16 15 15 14 13 12 11 11 11 10 10 10 10 10 10 10 11 11 11 11 11 12 12
17 14 12 10 9 7 6 5 5 6 7 8 9 11 12 13 14 15 16 16 16 16 16 14 13 12 11 10 10 9 9 9 9 9 9 9 10 10 10 10 10 10 11 11
17 14 12 10 8 7 6 5 5 6 6 8 9 10 12 14 15 16 16 17 17 17 16 15 14 12 11 9 9 8 8 8 8 8 9 9 8 8 8 9 9 9 9 10
16 14 11 9 7 6 5 5 5 5 6 7 8 9 11 14 16 17 18 18 18 17 16 16 15 13 11 9 8 7 8 8 7 8 8 8 7 7 7 7 7 8 8 8
16 13 11 9 7 6 5 4 4 5 5 6 7 9 11 13 15 16 17 18 18 17 16 16 16 14 11 9 8 7 7 7 7 7 7 7 6 6 6 6 6 6 6 6
15 13 10 8 6 5 5 4 4 4 5 5 7 8 10 13 15 16 17 18 18 17 17 17 16 15 13 11 9 8 8 8 7 7 7 7 6 6 5 5 5 5 6 6
15 13 10 8 6 5 4 4 3 4 4 5 6 7 9 11 14 16 17 17 17 17 18 18 17 16 14 12 10 9 8 8 8 8 7 7 7 6 6 6 6 6 6 6
14 12 10 7 6 5 4 4 3 3 3 4 5 6 8 10 12 15 16 17 17 17 17 17 17 17 15 13 12 10 9 8 8 8 8 8 8 7 7 7 7 7 7 8
13 11 9 7 6 5 4 4 4 4 3 3 3 4 6 8 10 13 15 17 18 17 16 16 16 16 16 16 15 14 13 11 10 9 8 9 9 9 9 10 10 10 10 10
13 11 9 7 6 5 5 5 5 5 4 3 3 3 4 5 8 11 13 16 17 16 15 15 15 16 17 17 17 16 16 14 13 11 11 11 11 12 12 12 12 12 12 12

GEFSNGP_500_meanwind_048.txt.gz
Wind_Speed
14 16 18 19 21 22 23 25 27 28 30 31 32 33 35 36 37 38 38 39 40 40 39 38 38 37 37 39 39 38 38 40 42 42 43 44 46 47 49 50 51 52 54 56
12 15 17 19 20 22 23 24 26 28 29 30 32 33 33 34 34 36 37 38 38 38 37 36 35 35 36 37 37 38 39 39 39 41 43 44 45 46 47 48 50 52 53 56
9 12 14 18 19 21 22 23 24 26 26 27 28 29 29 30 31 31 32 32 33 33 33 32 31 31 31 32 32 33 34 34 36 37 38 40 42 44 46 48 50 52 54 56
6 9 11 13 15 17 19 22 23 24 25 25 25 25 24 25 26 27 27 28 28 28 27 27 29 29 29 28 29 30 32 33 35 36 38 40 42 44 46 47 49 51 53 54
7 7 9 9 11 13 16 18 20 21 22 22 22 22 21 21 22 22 22 22 22 23 23 24 25 26 27 28 29 30 32 34 36 37 39 40 42 43 45 46 48 49 51 51
8 7 8 9 10 12 14 15 16 16 17 17 18 18 18 17 17 18 19 19 20 21 22 22 23 24 26 27 28 29 31 32 34 35 36 38 39 41 42 44 45 46 46 47
10 9 8 8 9 10 11 12 12 12 13 13 13 13 13 14 14 15 16 17 18 18 19 20 21 23 24 25 26 27 29 30 32 33 34 35 36 38 39 40 41 41 41 41
12 11 10 10 9 9 9 9 9 9 10 11 11 11 11 12 13 13 14 15 16 17 18 19 20 22 23 23 25 26 27 28 29 30 31 33 34 35 35 35 36 36 36 35
13 12 11 11 10 9 8 8 7 7 7 8 8 9 10 11 12 13 13 13 14 15 17 18 20 21 21 22 22 23 24 25 26 28 29 30 30 30 31 31 31 31 30 29
14 13 12 12 11 9 8 7 7 6 7 7 8 9 9 10 10 11 12 12 14 15 16 18 19 19 19 19 19 20 22 23 24 25 26 27 27 27 27 27 26 25 24 22
15 14 13 12 11 9 9 8 7 7 7 7 7 6 7 8 8 9 10 11 12 14 15 16 17 17 17 17 18 19 20 21 21 23 23 23 23 23 23 21 21 20 19 17
15 15 14 13 11 10 8 7 7 6 6 5 5 5 6 7 8 9 10 11 13 14 15 15 16 16 16 16 17 18 18 19 20 20 20 20 20 20 19 18 18 17 15 14
16 15 14 13 11 10 8 7 6 6 5 5 5 6 7 7 8 9 11 12 13 14 14 15 14 14 15 15 16 16 16 17 17 17 17 17 17 17 16 15 15 14 13 11
16 16 15 13 11 10 9 7 6 6 6 6 6 7 7 8 9 11 12 13 13 13 14 13 13 14 14 14 14 15 15 16 16 15 15 15 15 15 15 14 13 11 10 10
17 16 15 13 11 10 8 7 6 6 6 6 7 8 9 10 10 12 12 13 13 13 13 14 14 14 13 13 14 14 14 14 13 13 13 13 13 13 13 12 11 10 9 9
17 17 15 13 11 10 8 7 6 6 6 7 8 9 10 11 12 12 12 13 14 14 14 14 14 13 13 13 13 12 12 12 11 11 11 12 12 12 12 11 10 10 9 9
17 17 16 14 12 10 8 7 6 6 7 8 9 11 12 12 13 13 13 14 14 15 15 14 13 12 11 11 11 10 10 10 9 10 10 10 11 10 10 10 9 9 9 9
17 17 16 14 12 10 8 7 6 6 7 8 9 11 12 13 14 14 15 15 15 15 15 14 13 11 10 9 8 8 8 8 8 8 9 9 9 9 8 8 8 8 9 9
17 17 16 15 13 10 8 7 6 6 7 8 9 11 13 14 15 15 16 16 16 15 15 15 13 11 9 8 7 7 7 7 7 7 8 8 8 7 7 7 7 8 8 8
17 17 16 15 13 10 8 7 7 6 7 8 9 11 13 14 16 16 16 17 16 16 16 15 14 12 9 8 7 7 6 7 7 7 7 7 6 6 6 6 6 6 7 7
16 16 16 14 13 11 9 7 7 6 7 8 9 11 12 14 16 16 17 17 17 16 16 15 14 12 11 9 8 7 7 6 6 6 6 6 5 5 5 5 5 5 5 6
15 15 15 14 12 10 9 7 6 6 7 7 9 10 12 14 15 16 17 17 17 17 16 16 15 14 12 10 9 8 7 7 6 6 6 5 5 4 4 4 4 4 4 5
15 15 14 13 12 10 9 7 6 6 6 7 8 9 11 13 15 16 17 17 17 16 16 16 16 15 14 12 11 9 8 7 7 6 5 5 5 4 4 4 3 4 4 4
14 14 13 12 11 10 8 7 6 5 5 6 7 8 10 12 14 16 17 17 17 16 16 17 17 16 15 14 13 11 9 8 7 6 5 5 5 4 4 4 4 4 4 5
13 13 12 12 11 9 8 7 6 5 5 5 6 7 9 10 12 14 16 16 16 16 16 16 16 17 17 16 15 13 12 10 8 7 7 6 5 5 5 5 6 6 6 7
13 13 12 11 10 9 8 7 6 5 5 5 5 6 7 9 11 12 14 16 16 16 16 16 16 16 17 17 16 15 14 13 11 10 9 9 8 8 8 8 8 8 8 9
13 12 11 11 10 9 8 7 6 6 5 5 5 5 6 7 9 10 12 14 15 16 16 16 16 16 16 16 16 15 15 15 14 13 12 11 11 11 11 11 10 10 10 10

GEFSNGP_500_meanwind_054.txt.gz
Wind_Speed
10 11 13 14 16 17 18 19 21 23 24 25 26 28 29 29 30 31 32 33 34 35 35 36 38 38 39 39 40 40 40 41 41 41 41 42 43 44 44 45 45 46 46 48
8 10 13 15 16 18 19 20 22 23 24 24 25 26 27 27 29 30 30 30 32 32 33 33 34 35 36 36 37 37 37 38 39 39 40 41 42 42 43 44 45 45 46 47
6 8 10 14 15 17 19 20 22 23 23 24 24 24 25 26 27 27 29 30 29 29 28 29 29 30 30 31 32 33 34 35 37 37 38 39 40 41 42 43 44 45 46 48
3 5 8 10 12 14 16 18 19 21 22 22 22 22 23 24 25 25 25 25 25 25 25 26 27 27 28 29 30 31 31 32 34 35 36 37 37 38 39 41 42 43 44 46
3 4 6 8 9 11 13 15 16 17 18 18 19 19 20 20 21 22 22 22 23 23 23 24 24 25 25 26 27 28 28 29 31 32 33 34 35 36 37 39 40 41 42 43
4 4 5 6 7 9 11 12 13 14 15 15 16 17 17 18 19 20 20 20 21 21 22 22 23 23 24 25 25 26 26 28 29 30 30 31 32 33 34 35 36 37 38 38
7 5 5 6 7 8 8 10 11 12 12 12 13 14 14 15 16 17 17 18 19 20 20 20 21 21 21 22 23 24 24 25 26 26 27 27 28 30 31 32 33 33 34 33
8 7 6 6 6 7 8 8 8 8 8 10 11 11 11 12 13 14 15 16 17 18 18 18 19 19 20 21 21 22 22 23 23 23 24 25 26 27 28 29 29 28 28 27
9 9 8 7 7 7 7 6 6 5 6 6 7 8 9 10 11 12 13 14 15 15 16 17 18 18 19 19 20 20 20 20 21 21 22 23 23 24 25 25 24 24 23 22
11 10 10 9 9 8 8 6 5 5 5 5 6 6 7 8 9 10 11 12 13 14 15 16 17 17 18 19 19 18 18 19 19 19 19 20 21 21 22 21 21 20 18 17
12 12 11 10 10 9 8 6 5 5 5 5 5 5 6 6 7 8 9 10 11 13 14 15 16 17 17 17 17 17 17 18 17 17 18 18 18 19 19 18 17 16 14 12
12 13 12 11 10 10 8 7 6 6 6 5 5 5 5 6 6 8 9 10 11 13 14 15 16 16 16 15 15 15 16 15 16 16 16 16 16 16 16 15 14 12 11 9
13 14 13 12 10 10 8 7 7 6 6 5 5 6 6 7 7 8 9 10 11 12 13 14 14 14 14 14 14 14 14 14 14 14 14 13 13 13 13 12 10 9 8 7
13 14 14 13 11 10 9 8 7 6 5 6 6 7 7 8 8 8 9 10 12 12 13 14 14 15 14 14 13 12 12 12 12 12 11 11 11 11 10 9 8 6 6 5
13 14 14 13 12 10 9 7 6 6 6 6 7 8 9 9 9 9 10 11 12 13 13 14 14 14 12 11 11 11 10 10 10 10 9 8 9 8 7 7 6 5 5 5
13 14 15 14 12 10 9 8 7 6 6 7 8 9 10 11 10 10 11 12 13 14 14 14 14 12 11 10 9 9 8 8 8 7 6 7 7 6 6 5 5 5 5 5
13 14 14 14 13 11 10 8 7 7 7 7 8 10 11 12 12 12 13 13 14 15 14 14 12 10 9 8 7 6 6 6 6 5 5 5 5 5 4 4 4 4 4 5
12 14 14 14 13 12 10 9 8 7 7 8 9 10 12 13 13 14 14 14 15 15 14 13 12 9 8 6 6 5 5 4 4 4 4 4 3 3 3 3 3 4 4 4
12 13 14 14 13 12 11 9 8 8 7 8 9 11 12 13 14 15 15 15 16 15 14 13 12 9 8 7 6 5 4 4 4 4 4 3 3 2 3 3 3 3 3 4
11 12 13 13 13 12 11 10 9 8 8 8 9 11 12 14 14 15 16 16 16 16 15 13 12 11 9 8 6 5 4 4 4 4 3 3 2 2 2 2 2 2 3 4
10 12 12 13 12 12 11 10 9 8 8 8 9 10 12 13 15 15 16 16 16 16 15 15 13 12 11 9 7 6 5 4 4 3 3 2 2 2 1 1 1 2 2 3
10 11 12 12 12 12 11 10 9 9 8 8 9 10 11 13 14 15 16 16 16 16 16 16 15 14 12 10 8 7 5 4 4 3 2 2 1 1 1 1 1 1 2 2
9 10 11 11 11 11 11 10 10 9 8 8 8 9 11 12 14 15 16 16 16 16 16 16 16 15 14 12 10 8 6 5 4 3 2 2 1 1 1 1 2 2 2 2
8 9 10 10 11 11 10 10 10 9 9 8 8 9 9 11 13 15 16 17 17 16 16 16 16 16 16 14 13 11 9 7 5 3 2 2 2 2 2 3 3 3 4 4
9 9 10 10 10 10 10 10 9 9 9 8 8 8 8 10 11 13 15 16 17 17 17 17 16 16 16 16 15 13 12 10 8 6 5 4 4 4 4 5 5 5 5 5
10 9 9 10 10 9 9 9 9 9 8 8 7 7 8 8 10 11 13 14 16 16 17 17 16 16 16 16 15 15 14 12 11 9 8 8 7 7 7 6 6 6 6 6
12 11 10 10 10 9 9 9 9 8 8 8 7 7 7 7 8 9 11 12 14 15 16 16 16 16 16 16 16 15 14 13 12 11 10 9 9 9 8 8 8 8 8 8

GEFSNGP_500_meanwind_060.txt.gz
Wind_Speed
4 8 11 11 13 16 19 23 25 24 22 19 18 18 18 20 22 24 26 27 28 30 31 32 34 35 36 37 38 39 40 41 41 42 43 43 43 44 44 44 45 45 45 45
1 4 8 9 13 16 17 21 25 26 25 24 22 20 20 20 22 24 26 27 28 30 31 32 33 35 36 37 38 38 39 40 40 41 41 41 41 42 42 42 43 43 43 44
1 4 7 8 11 14 16 19 22 24 26 27 26 25 23 23 23 24 26 27 28 30 31 32 33 34 35 35 35 35 36 36 37 37 38 38 38 38 39 39 39 40 41 42
1 4 6 8 10 13 16 19 21 23 25 25 24 24 24 22 23 23 24 25 26 27 28 28 29 30 30 31 32 32 33 34 34 34 35 35 35 36 36 36 37 38 39 40
2 4 7 8 10 12 14 16 18 20 22 23 22 22 22 22 22 23 22 22 23 23 24 25 26 27 27 28 28 29 30 30 30 30 30 31 31 31 32 33 34 35 36 37
3 5 8 9 10 12 14 14 15 17 18 19 19 19 19 19 20 21 21 22 23 24 24 24 25 25 25 25 25 26 26 27 27 27 27 27 28 29 30 30 31 31 32 32
6 6 7 9 10 11 12 13 14 14 15 15 15 16 16 16 17 18 18 19 20 20 21 21 21 22 22 23 23 23 23 24 24 24 24 25 26 26 26 27 27 28 28 28
8 8 9 10 11 11 12 11 11 12 12 11 12 12 12 13 14 15 15 16 16 17 18 18 19 20 20 21 21 20 20 21 21 21 22 22 23 23 23 24 24 24 23 23
9 9 10 10 11 11 11 11 10 10 9 9 9 9 10 11 12 12 13 14 14 14 15 16 16 17 17 18 18 19 19 19 19 20 20 20 21 21 21 21 21 20 20 20
10 11 11 11 12 12 12 11 10 9 8 8 8 8 8 8 9 10 11 11 12 12 12 13 14 15 16 17 17 18 18 18 18 18 18 18 18 18 18 18 18 18 17 16
11 12 13 13 13 12 12 11 11 10 9 8 7 7 7 8 9 9 10 11 11 11 11 12 14 15 16 17 17 17 17 17 16 16 16 17 17 16 16 16 16 15 14 13
13 14 14 14 14 13 12 12 11 10 9 9 8 9 9 9 9 10 9 10 10 11 11 13 15 16 16 17 16 16 16 15 15 15 15 15 15 14 14 14 14 13 11 10
13 14 15 15 14 14 13 12 11 10 10 9 10 10 10 10 10 10 10 10 11 12 13 15 16 16 16 16 15 15 14 14 14 14 14 13 12 12 12 11 11 9 8 8
12 14 15 15 15 14 14 13 12 11 10 10 10 10 11 11 11 10 11 12 12 13 14 15 16 16 16 15 14 13 13 12 13 12 12 11 10 9 9 9 8 7 6 6
12 13 15 15 15 15 14 13 13 12 11 10 10 11 12 13 12 12 12 13 13 14 15 15 15 15 14 13 12 11 11 11 11 10 9 8 8 7 7 7 6 5 5 5
12 13 14 15 15 15 15 14 13 12 11 11 11 12 13 13 13 13 14 14 15 15 15 15 14 13 11 10 9 9 9 8 8 8 7 6 6 6 6 6 5 5 4 5
11 13 14 15 15 15 15 15 14 13 12 12 12 13 14 14 14 15 15 15 15 15 15 14 13 11 9 8 7 7 6 6 6 6 5 5 5 5 5 5 5 4 4 4
10 12 13 14 15 15 16 15 15 14 13 13 13 14 14 14 15 15 15 16 16 16 15 13 12 10 8 8 7 5 5 5 4 5 4 4 4 5 5 4 4 4 4 4
9 11 13 14 14 15 16 16 15 15 14 14 14 14 14 15 16 16 16 16 16 16 16 14 13 11 9 8 7 6 6 5 5 5 5 4 4 4 4 4 4 4 4 4
8 10 12 13 14 15 15 16 16 15 15 14 14 15 15 16 16 16 16 16 16 17 17 16 15 13 11 9 8 7 6 5 5 5 5 5 4 4 4 4 4 4 4 4
7 9 11 12 13 14 15 16 16 16 15 15 15 15 15 16 17 17 17 17 17 17 18 18 16 14 12 11 9 8 6 5 5 4 4 4 4 4 4 4 4 4 4 4
7 8 10 11 12 13 14 15 15 16 16 15 15 15 15 16 17 17 17 17 18 18 18 18 17 16 15 13 11 10 8 6 5 4 4 3 3 3 3 3 3 3 4 4
7 8 9 10 12 13 13 14 15 15 15 15 15 15 15 15 16 17 18 18 18 19 19 18 18 17 17 15 13 12 10 8 6 5 4 3 3 3 3 3 3 3 4 4
8 9 9 10 11 12 13 13 14 14 15 15 15 15 15 15 16 17 17 18 18 19 19 19 19 18 18 16 15 14 13 11 9 7 6 4 4 4 4 4 4 4 4 5
10 10 10 11 11 12 12 13 13 14 14 14 14 14 14 14 15 16 17 17 17 18 18 18 18 18 18 17 16 16 15 13 12 10 9 7 6 6 6 6 6 6 6 6
13 12 12 12 12 12 12 12 13 13 13 13 14 14 14 14 14 15 15 16 16 17 17 18 18 18 17 17 17 17 16 15 14 12 11 10 9 8 8 7 7 7 7 8
16 15 14 14 13 13 12 12 12 12 13 13 13 13 13 13 13 13 14 15 15 15 16 16 17 18 18 17 17 17 16 15 14 13 12 11 10 9 9 9 8 8 8 9

GEFSNGP_500_meanwind_066.txt.gz
Wind_Speed
8 11 12 14 16 16 17 18 20 20 20 19 18 17 13 10 11 13 15 18 21 23 25 27 28 29 30 31 32 32 33 34 34 35 35 36 36 37 37 38 39 39 38 38
7 9 10 12 13 14 15 16 18 19 20 18 17 16 16 15 15 15 16 18 21 23 25 27 28 29 30 31 32 33 33 34 34 35 35 35 36 36 36 36 37 37 36 36
5 6 7 10 10 11 13 15 16 18 18 18 17 17 17 17 17 18 19 20 22 24 25 26 26 28 28 29 30 31 31 32 32 33 32 33 33 33 33 34 34 34 33 34
2 4 4 4 6 8 10 12 13 15 16 16 17 17 17 18 18 18 18 19 20 22 22 23 24 24 25 27 28 28 28 29 29 30 30 31 31 31 31 31 31 30 31 31
2 1 1 3 5 8 9 11 12 14 15 15 15 16 16 16 16 17 17 18 19 20 20 21 22 23 25 25 25 26 26 26 27 27 28 28 28 28 28 27 27 28 28 29
5 5 4 6 7 8 9 11 11 11 12 12 13 13 13 14 14 15 16 17 17 19 19 20 20 21 23 23 24 24 25 25 25 25 25 25 25 24 24 24 25 25 25 25
7 7 7 8 9 9 10 11 11 11 11 11 11 11 11 11 12 13 14 15 16 17 17 18 19 19 21 21 22 22 23 23 23 22 22 22 22 22 22 22 22 21 21 21
8 8 9 10 10 10 10 11 11 10 9 8 9 9 9 9 9 10 12 12 14 15 15 16 16 17 17 18 18 19 20 20 20 20 20 20 19 19 19 19 19 19 19 18
10 10 10 11 11 11 11 11 10 9 8 8 8 8 7 7 7 8 9 10 11 11 12 13 13 14 14 15 16 17 17 18 18 18 18 18 18 18 18 17 17 17 16 16
10 11 12 12 11 11 11 11 10 9 8 8 7 7 7 7 7 7 7 8 8 9 11 11 12 13 14 15 15 16 17 17 17 17 16 16 16 16 16 15 15 14 14 14
11 12 13 13 13 13 12 12 11 10 9 8 8 7 7 7 7 6 6 7 8 9 10 10 11 12 13 14 15 16 16 16 16 16 16 15 15 14 14 13 13 13 13 12
11 12 14 14 14 14 14 13 12 11 10 9 8 8 7 7 7 6 7 7 7 8 9 10 11 12 13 14 15 15 14 14 15 14 14 13 13 13 12 12 11 11 11 10
11 13 14 15 15 15 15 14 13 12 11 10 10 9 9 9 8 8 8 8 8 9 9 9 10 12 13 13 13 13 13 12 12 11 11 11 10 10 10 9 9 9 8 8
11 13 14 15 16 16 16 15 14 14 13 12 11 11 11 10 10 9 9 9 9 9 9 10 11 12 12 11 11 10 10 10 9 9 9 9 8 8 7 7 7 7 6 6
11 13 14 15 16 17 17 16 16 15 14 13 13 12 12 12 11 11 11 11 11 11 11 11 10 10 10 9 8 7 7 6 6 6 6 6 7 6 6 6 6 5 5 5
11 13 14 15 16 17 17 17 17 16 15 14 14 13 13 13 13 12 12 12 12 12 12 11 11 9 8 7 7 6 5 4 4 4 4 4 4 4 4 4 4 4 4 4
10 12 13 14 15 16 17 17 17 17 16 16 15 15 15 14 14 14 14 14 14 14 14 13 12 10 8 7 6 5 4 4 3 3 3 3 3 3 3 3 3 3 3 3
10 11 13 14 15 16 17 18 18 18 18 17 17 16 16 16 16 16 16 16 16 16 16 15 14 11 9 8 7 6 5 4 3 3 3 3 2 2 2 2 2 3 2 3
8 10 12 14 15 16 17 17 18 18 18 18 18 17 17 17 17 17 17 18 18 18 18 17 16 14 12 9 8 6 5 4 3 3 3 2 2 2 2 2 2 3 3 3
7 9 11 13 15 16 17 17 18 18 18 19 18 18 18 17 17 18 18 19 19 19 18 18 18 17 15 13 10 8 6 4 4 3 3 2 2 2 2 2 2 3 3 3
6 8 10 12 14 16 16 17 18 18 18 18 18 18 18 18 18 18 19 19 20 20 19 19 19 18 17 15 13 11 9 7 5 4 4 3 3 3 3 3 3 3 3 3
4 7 9 11 13 15 16 17 17 18 18 18 18 18 18 18 19 19 19 19 20 21 21 20 19 19 18 16 15 14 12 9 7 7 6 5 5 5 5 4 4 4 4 4
2 5 8 10 12 14 15 16 16 17 18 18 18 18 18 18 18 19 19 19 20 21 21 21 20 20 19 18 17 16 14 12 11 9 8 7 7 6 6 6 5 5 5 5
2 4 7 9 11 12 13 15 15 16 16 17 17 18 18 18 18 18 18 18 19 20 21 21 21 21 20 20 19 18 16 14 13 11 10 9 9 8 8 7 7 7 6 6
4 5 7 9 10 11 12 13 14 15 15 16 16 16 17 17 17 17 17 18 18 19 20 21 21 21 20 20 19 18 18 17 16 14 12 11 10 9 9 8 8 8 8 8
7 7 8 9 10 11 11 12 13 14 14 14 15 15 15 16 16 16 16 16 17 18 18 19 19 19 20 20 19 19 19 18 17 15 14 13 11 10 10 9 9 9 9 8
10 10 10 10 10 11 11 12 12 13 13 13 13 14 14 14 15 15 15 15 16 16 16 17 17 18 18 18 18 19 19 18 17 15 14 13 12 11 11 10 9 9 9 9

GEFSNGP_500_meanwind_072.txt.gz
Wind_Speed
8 8 9 10 10 11 12 14 14 14 15 15 16 16 14 13 12 11 12 14 16 17 18 20 20 21 22 23 23 23 24 25 25 26 26 26 27 28 29 30 30 31 32 33
7 7 8 9 10 11 11 12 13 14 15 15 15 15 14 12 12 11 12 13 13 15 16 18 20 20 21 22 23 24 25 25 25 26 27 27 28 28 29 29 30 30 30 30
5 6 6 7 8 9 10 11 12 13 14 14 14 14 12 11 11 11 12 12 14 15 16 17 18 20 21 22 23 24 25 25 26 26 27 27 27 27 28 28 29 28 29 29
5 5 6 6 7 8 10 10 10 11 12 12 12 12 10 10 10 12 12 13 14 15 16 17 18 20 21 22 22 23 23 23 24 24 24 25 25 26 26 27 27 27 27 27
4 4 6 6 8 9 9 9 9 8 9 9 10 10 10 10 12 13 13 13 14 15 16 17 18 19 20 20 20 20 21 21 21 22 22 23 23 24 24 24 25 25 25 25
3 5 6 6 7 8 7 7 8 7 8 8 8 8 8 9 10 11 12 12 13 13 15 16 17 18 18 18 19 19 19 20 20 21 21 22 22 23 23 22 22 22 22 22
4 5 6 7 7 8 7 8 7 7 7 7 7 6 7 8 8 9 10 11 12 12 13 14 15 16 17 17 18 18 19 19 19 20 20 21 21 21 21 20 20 20 20 20
4 5 6 7 8 8 8 9 8 8 7 6 6 6 6 7 7 8 9 10 11 11 12 13 14 14 15 15 16 17 17 18 18 18 19 19 19 19 19 19 18 18 18 17
6 6 7 8 9 9 9 9 9 8 7 7 5 5 6 6 6 7 8 9 10 10 11 11 12 13 14 14 15 15 16 16 17 17 18 18 18 18 18 17 17 16 16 15
6 7 8 9 10 10 10 10 10 9 8 7 6 6 6 6 5 6 7 8 9 10 10 11 12 12 13 13 14 14 15 15 16 17 17 17 17 17 16 16 15 14 14 13
8 9 10 10 11 11 12 12 11 10 9 8 7 6 7 7 6 6 6 7 8 9 10 10 11 12 12 13 13 14 15 15 16 16 15 15 15 15 14 14 13 12 12 12
9 10 11 11 12 13 13 13 12 11 10 9 9 8 8 7 7 6 6 7 7 8 8 9 9 10 12 13 13 14 14 14 13 13 13 13 12 12 11 11 11 10 10 10
9 10 12 13 13 13 13 14 13 13 11 10 10 9 9 8 8 7 7 7 7 6 7 8 9 10 11 11 12 12 11 11 11 11 11 10 10 10 9 9 9 8 8 8
10 11 12 13 14 14 14 15 15 14 13 12 11 11 10 9 9 8 8 8 8 7 8 8 9 9 10 9 9 9 9 9 8 8 8 8 8 7 7 7 7 7 7 6
10 11 12 13 14 15 15 16 16 16 15 14 13 12 12 11 10 10 10 10 10 9 8 8 8 8 8 7 7 7 7 6 6 6 6 6 5 5 5 5 5 5 5 5
9 11 12 13 14 15 15 16 17 17 17 16 15 15 14 13 12 12 11 11 11 11 10 10 9 8 7 5 5 4 4 4 4 5 5 4 4 3 3 2 3 3 3 3
9 11 12 13 14 15 16 16 17 18 18 17 16 16 15 15 14 13 13 13 13 13 13 12 11 9 7 5 4 4 4 4 4 4 4 4 3 2 2 2 2 2 2 3
10 10 12 13 14 15 16 17 17 18 18 18 17 17 16 16 16 15 15 15 14 14 14 14 13 11 9 7 6 5 5 4 4 4 4 4 4 3 3 2 2 2 2 3
10 10 12 13 14 15 15 16 17 18 18 18 18 18 17 17 17 17 17 17 16 15 15 15 14 14 12 10 9 7 7 6 5 5 5 5 4 4 4 3 3 3 3 3
9 10 11 12 13 14 15 16 17 17 18 18 18 18 18 18 18 19 19 18 18 17 17 16 16 16 14 13 12 10 9 8 7 6 6 6 5 5 5 4 4 4 4 4
8 9 10 11 13 14 15 16 16 17 17 18 18 18 18 18 19 19 20 19 19 19 18 18 18 17 16 15 14 13 11 10 9 9 8 8 7 7 6 6 6 6 6 6
7 8 9 10 12 13 14 15 16 16 17 17 17 18 18 18 19 19 20 20 20 20 20 20 20 19 18 17 16 15 13 12 11 11 10 10 9 9 8 8 8 8 8 8
6 6 7 9 10 12 13 14 15 15 16 16 17 17 17 18 18 19 19 20 20 20 20 21 21 21 20 20 19 18 16 15 14 13 12 12 11 11 10 10 10 10 10 10
6 5 5 7 9 10 11 12 13 14 14 15 15 16 17 17 17 18 19 19 19 20 20 20 21 21 21 20 20 19 18 17 16 15 14 13 13 12 12 12 11 11 11 11
6 4 3 5 7 9 10 11 12 12 12 13 14 14 15 16 16 17 17 18 18 19 19 20 20 20 20 20 20 19 18 18 17 16 15 15 14 14 13 13 12 12 12 12
6 3 1 2 4 6 8 9 10 11 11 11 12 13 13 14 14 15 16 16 17 17 18 18 18 19 19 19 19 18 18 17 17 16 16 15 15 14 13 13 12 12 12 12
8 5 3 1 3 5 7 8 9 9 10 10 10 11 11 12 12 13 14 14 15 15 16 16 16 16 17 17 17 17 16 16 15 15 15 14 14 13 13 12 12 12 12 12

GEFSNGP_500_meanwind_078.txt.gz
Wind_Speed
9 8 8 8 8 9 11 12 13 13 14 13 13 13 13 12 12 11 13 14 14 16 18 20 21 21 22 23 23 24 26 26 26 26 26 26 26 26 26 26 26 27 28 29
8 7 8 8 9 10 11 12 12 13 13 13 13 12 12 12 12 12 13 14 15 16 18 19 20 21 21 22 22 23 23 24 25 25 26 26 26 26 26 27 28 28 29 29
7 8 8 9 8 9 10 11 11 12 12 12 12 12 12 11 12 12 13 14 15 16 17 16 17 20 22 23 22 22 23 23 24 25 25 26 26 27 27 28 28 28 28 28
6 7 7 8 8 9 10 11 11 12 12 12 12 11 10 10 10 11 12 11 13 14 15 16 17 19 20 20 21 21 22 22 22 23 23 23 24 25 26 25 26 26 26 27
5 6 7 8 8 9 10 10 10 10 10 10 10 9 9 9 10 10 10 11 11 12 12 13 15 16 17 17 18 19 19 20 20 21 21 22 23 23 24 24 24 25 25 26
5 6 7 8 8 9 9 9 9 9 9 9 9 9 8 8 8 8 8 9 10 10 11 12 12 13 14 14 15 16 17 18 18 18 19 20 21 22 22 23 23 24 24 24
4 5 7 7 8 8 8 9 9 8 8 8 8 8 8 8 8 8 8 9 10 11 11 11 12 12 12 13 13 14 15 16 17 18 18 19 20 20 21 21 22 22 22 22
4 5 6 7 7 7 8 8 8 7 6 6 6 7 7 7 7 7 8 9 10 11 11 11 12 12 13 13 13 14 15 16 17 17 18 19 19 20 20 20 20 20 20 20
3 4 5 5 6 6 7 7 6 5 4 4 4 5 5 5 6 7 7 8 8 8 9 10 10 11 12 12 13 13 14 15 15 16 17 17 18 18 19 19 18 18 18 17
2 2 3 4 5 5 6 6 6 5 4 4 3 3 3 3 3 4 5 6 7 7 8 9 9 10 11 11 12 12 12 12 13 14 14 15 15 16 16 16 16 16 16 16
1 1 3 4 4 5 6 7 7 6 6 5 4 4 3 2 2 2 3 4 5 6 7 8 8 9 9 10 11 11 11 11 12 12 12 13 13 13 14 14 14 14 14 13
1 2 3 4 5 6 7 8 8 7 7 6 6 5 4 4 3 2 3 3 3 4 5 6 7 8 8 9 10 10 10 11 11 11 11 12 12 11 11 11 11 11 11 11
3 4 4 5 6 7 8 9 9 9 9 8 8 7 7 6 5 4 4 3 2 3 3 4 5 6 7 7 8 8 8 8 9 9 9 9 9 9 9 9 9 9 9 10
4 5 5 6 7 9 9 10 10 10 10 10 10 9 8 7 7 7 6 5 4 3 2 3 4 5 5 4 5 5 5 6 6 6 6 6 7 7 7 7 7 7 7 7
5 5 6 7 8 9 10 10 11 11 11 11 11 10 10 10 9 9 8 7 6 5 5 4 3 3 2 2 2 3 3 4 4 4 4 4 5 4 5 5 5 5 5 5
6 6 7 8 9 10 10 11 12 12 12 12 12 12 12 12 11 10 9 9 9 8 7 6 4 3 2 1 1 1 1 1 2 2 2 2 2 2 2 2 3 3 3 3
7 7 7 8 9 10 11 12 13 13 13 14 14 14 14 14 13 12 11 11 10 10 9 8 6 5 4 4 3 3 2 2 2 2 2 1 1 1 1 2 2 2 2 1
8 7 7 8 9 10 11 12 13 14 14 15 15 16 16 16 15 15 14 13 12 12 11 10 9 8 7 6 5 5 5 4 4 4 4 3 3 3 3 3 3 2 2 1
9 8 8 9 10 10 11 12 13 13 14 15 15 16 17 17 17 17 16 15 15 14 13 12 11 10 9 8 7 7 6 6 6 5 5 5 5 5 5 4 4 3 3 3
10 9 9 9 10 10 11 12 13 13 14 14 15 16 17 17 18 18 18 18 17 17 16 15 14 13 12 11 10 10 9 8 8 8 7 7 7 7 6 6 5 5 4 4
11 10 10 10 10 10 11 12 13 13 14 14 15 16 16 17 18 18 19 19 19 19 18 17 17 16 15 14 13 13 12 11 11 10 10 9 9 8 8 8 7 7 7 6
12 11 10 10 10 10 11 11 12 13 13 14 14 15 16 17 18 19 19 20 20 20 20 20 19 19 18 17 16 15 15 14 13 13 12 11 11 10 10 9 9 9 8 8
12 11 10 9 9 9 10 10 11 12 12 13 14 15 15 16 17 18 19 19 20 20 20 21 20 20 19 18 17 17 16 15 15 14 13 13 12 12 11 10 10 10 9 9
13 11 10 9 8 8 9 9 10 11 11 12 13 13 14 15 16 17 18 18 19 19 20 20 20 20 19 19 18 17 16 16 15 14 14 13 12 12 11 11 10 10 9 9
14 12 10 8 7 7 8 8 9 9 10 11 11 12 12 13 14 15 16 16 17 18 18 18 19 19 19 18 18 17 16 16 15 15 14 13 13 12 12 11 10 10 9 9
15 12 10 8 7 6 6 7 8 8 9 9 10 10 11 11 12 13 13 14 15 15 16 17 17 17 17 17 17 16 16 15 15 14 14 13 12 12 11 11 10 9 9 9
16 13 10 8 6 5 5 5 6 7 8 8 9 9 9 9 10 10 11 12 12 13 14 14 15 15 15 15 15 15 14 14 14 13 13 13 12 11 11 10 9 9 8 8

GEFSNGP_500_meanwind_084.txt.gz
Wind_Speed
10 10 11 11 11 14 16 17 19 20 22 21 21 22 21 20 19 19 17 16 16 17 18 19 19 19 20 21 22 23 24 25 25 26 26 27 27 28 28 29 29 29 30 30
10 10 11 11 13 14 15 18 19 21 22 20 21 21 21 19 18 18 17 16 17 17 18 18 19 19 18 19 20 21 22 24 25 25 25 26 27 28 28 29 29 29 28 28
10 9 10 10 12 14 15 17 19 20 20 20 19 20 19 18 18 17 16 16 17 17 17 17 17 18 18 18 20 20 21 22 23 24 25 26 25 25 26 26 26 26 27 27
9 8 9 11 13 14 15 17 18 19 19 19 19 19 18 17 16 15 14 13 14 14 15 16 16 17 18 18 18 18 20 21 22 22 22 22 23 23 23 23 24 24 24 25
8 9 10 13 14 14 17 18 18 18 19 19 19 18 16 15 14 14 13 12 12 12 12 13 14 14 14 16 17 17 17 18 19 20 20 20 21 22 22 22 23 24 24 25
9 11 11 14 14 15 17 18 18 18 18 18 17 16 15 14 13 13 12 12 11 11 11 12 12 12 14 14 15 16 16 17 18 19 18 19 20 20 20 20 21 22 23 24
10 12 14 15 15 16 17 17 18 18 18 17 16 15 15 14 13 13 12 12 11 11 11 11 11 11 12 12 13 13 14 15 15 16 16 17 17 17 18 19 20 20 21 22
10 11 14 14 15 16 16 17 17 17 17 16 15 14 13 13 12 11 10 9 9 9 9 10 10 10 10 11 11 12 12 12 13 13 14 15 15 16 17 18 19 19 20 21
9 11 12 13 14 15 15 15 15 16 15 14 14 12 12 11 11 10 8 8 7 8 8 9 9 9 8 9 9 10 10 11 12 14 14 15 15 15 16 17 18 18 19 19
9 10 11 12 13 13 14 14 14 14 14 13 12 11 10 10 9 7 7 7 7 7 7 8 8 9 9 8 9 9 10 10 11 12 12 12 13 14 15 16 16 17 17 17
9 9 10 11 11 12 13 13 13 13 13 12 11 10 9 9 8 6 5 5 5 6 5 5 5 6 7 8 8 8 9 10 10 11 11 11 12 13 13 14 14 14 14 14
8 8 9 9 10 11 12 12 12 12 12 12 11 10 10 8 7 6 4 3 3 3 4 4 5 5 6 6 7 7 8 9 10 10 11 11 11 12 12 12 12 12 12 12
6 6 7 8 9 10 10 11 11 11 12 12 11 10 9 8 7 5 4 3 3 3 3 4 5 5 6 5 6 7 8 9 9 9 9 9 10 10 11 10 10 10 10 10
4 4 5 7 8 9 9 10 10 11 11 11 12 11 10 9 8 7 6 5 4 4 3 4 4 4 5 5 5 6 6 7 7 7 8 8 8 8 8 8 8 8 8 8
3 3 4 5 6 8 9 10 10 11 11 12 12 12 12 10 10 9 8 7 6 5 4 3 3 3 2 2 3 4 4 4 4 5 5 6 5 5 5 5 5 5 5 5
2 1 2 4 5 7 9 10 10 10 11 12 12 12 12 12 11 10 9 8 8 7 6 5 4 3 3 2 3 3 3 3 3 4 4 3 3 3 3 3 3 3 3 3
3 1 1 3 5 7 8 9 10 10 11 12 13 13 13 13 13 12 11 10 9 8 7 6 5 4 4 3 3 3 3 3 3 3 3 3 3 2 2 2 2 3 3 3
4 3 2 4 5 6 8 9 10 11 12 13 13 14 14 15 15 14 13 12 11 10 9 8 7 7 6 6 6 6 6 5 5 5 5 5 4 4 4 4 4 4 4 5
6 4 4 4 5 7 8 9 10 12 12 13 14 15 15 15 15 15 16 15 14 13 11 10 10 9 9 9 9 9 9 9 9 8 8 7 7 7 7 6 6 6 6 6
7 6 5 5 6 7 8 9 11 12 13 13 14 15 15 16 16 17 17 17 17 16 15 14 13 12 12 12 12 12 12 12 11 11 11 10 10 9 9 8 8 7 7 8
8 7 6 6 6 7 8 9 10 11 12 13 14 15 16 16 17 18 18 19 19 19 18 17 17 16 15 14 14 13 13 13 13 13 13 12 12 11 10 10 9 9 9 9
10 8 8 7 7 7 8 8 9 11 11 13 14 15 15 16 17 18 19 20 20 20 19 19 19 18 17 16 16 15 15 15 15 14 14 14 13 12 12 12 11 11 10 10
11 10 9 8 8 8 8 9 10 11 11 12 13 14 15 16 16 17 18 19 20 20 19 19 19 19 19 18 17 17 17 16 16 15 15 14 14 14 13 13 12 12 11 11
13 12 10 9 8 8 8 9 9 10 11 12 13 14 14 15 15 16 17 18 18 19 19 19 19 19 19 18 18 18 18 17 16 15 14 14 14 13 13 13 12 12 12 11
15 13 12 10 9 8 8 9 9 10 10 11 12 13 13 14 15 15 16 16 17 17 18 18 18 19 18 17 17 18 18 17 17 16 15 14 13 13 13 12 12 11 11 11
17 15 13 11 9 8 8 8 8 9 10 10 11 11 12 12 13 14 14 15 16 16 16 16 17 17 17 16 17 17 17 16 16 15 15 14 13 12 12 11 11 10 10 10
19 17 14 12 10 9 8 7 7 8 9 9 10 10 11 11 12 12 13 13 14 14 15 15 15 15 15 15 16 16 16 15 15 15 14 14 13 12 11 10 10 10 10 9

GEFSNGP_500_meanwind_090.txt.gz
Wind_Speed
12 12 13 13 13 13 14 16 17 18 19 19 20 21 22 21 20 20 19 18 18 18 17 16 15 15 16 16 16 16 16 17 18 18 18 18 18 19 19 19 19 20 20 20
13 12 12 12 13 12 13 14 16 17 19 19 20 21 21 21 20 20 18 17 16 15 14 14 14 14 15 16 16 16 17 17 17 17 18 19 18 19 19 20 20 20 20 20
12 11 11 12 11 11 12 13 15 17 18 19 20 21 21 20 19 18 17 16 15 13 12 12 12 13 13 14 14 15 15 15 16 17 18 18 18 17 18 19 19 21 21 22
9 9 10 9 11 11 11 13 15 17 19 19 20 20 20 20 19 18 16 14 13 12 12 11 11 11 12 13 13 14 14 15 15 16 16 16 17 17 17 18 19 20 20 20
8 8 9 10 10 11 13 14 16 17 18 19 19 20 19 18 17 16 14 13 12 11 10 10 10 10 11 12 12 12 13 14 15 15 16 16 17 17 17 17 18 19 19 19
7 8 9 9 11 12 13 14 16 17 18 18 18 18 17 16 15 14 12 10 9 9 8 8 9 10 10 10 10 11 11 12 12 13 14 15 15 15 15 16 17 17 16 16
8 8 9 9 10 12 13 15 16 17 17 17 17 16 15 14 13 12 10 8 7 6 6 7 7 8 8 9 10 9 9 10 11 12 12 13 13 14 14 14 13 13 14 14
7 7 7 8 10 12 14 15 16 16 16 16 15 14 13 13 12 10 8 7 6 5 6 6 6 7 8 8 8 9 9 10 11 10 11 11 11 11 12 12 11 12 12 13
4 4 5 8 10 11 13 14 15 16 16 15 14 13 12 12 10 9 6 5 4 4 4 4 4 5 6 7 7 6 7 8 9 9 10 10 10 10 10 10 10 10 11 12
2 3 6 8 10 11 12 14 15 15 15 14 13 12 11 10 8 6 4 3 2 2 3 3 3 5 5 5 6 5 6 6 7 7 7 7 7 8 8 8 8 9 9 10
2 3 6 8 10 11 12 13 14 15 15 15 14 12 11 9 7 5 4 3 2 1 0 1 2 3 4 4 4 4 4 5 5 6 6 6 6 7 6 6 6 7 8 8
1 4 6 8 9 10 12 13 13 14 15 14 13 11 10 9 7 6 5 4 4 3 3 3 3 3 3 2 3 3 3 3 3 3 4 4 4 4 4 4 5 5 6 7
1 3 6 7 8 10 11 12 13 13 14 14 13 12 10 9 8 7 6 5 6 6 5 5 4 3 3 2 2 2 2 2 2 2 2 3 2 3 3 3 4 5 5 5
1 3 4 6 8 10 11 12 12 13 13 13 13 13 12 11 10 8 7 6 6 6 5 5 4 4 3 3 3 2 2 2 2 2 1 1 1 1 1 2 2 2 2 2
1 2 3 6 7 9 10 11 12 13 13 13 13 14 13 13 12 11 9 8 8 7 7 6 5 5 5 5 4 4 4 4 4 3 3 2 2 1 1 1 1 2 2 3
2 0 3 5 7 8 10 11 12 13 13 14 14 14 15 14 13 13 12 10 9 9 8 8 8 7 6 6 6 6 6 6 5 5 4 4 4 4 4 4 4 4 4 4
2 2 3 4 6 8 9 11 12 13 13 14 15 15 16 15 15 14 13 12 11 11 10 10 10 9 9 9 8 8 7 7 7 7 7 6 6 6 6 6 6 6 6 6
4 3 3 4 6 7 9 10 11 13 13 14 15 16 17 17 16 16 15 14 13 12 12 12 11 11 11 11 11 10 10 9 9 8 8 8 8 8 8 8 8 8 8 8
6 4 4 4 6 7 8 9 11 12 14 14 15 16 17 18 18 18 17 16 15 15 14 14 14 14 14 14 14 13 13 12 12 11 11 11 11 11 11 11 10 10 10 10
7 6 5 5 6 7 8 9 11 12 14 15 15 16 17 18 19 19 19 19 18 18 17 17 17 16 16 15 15 15 14 14 14 14 14 14 14 13 13 12 12 11 11 11
8 8 7 6 6 7 8 9 10 11 13 14 15 16 17 18 19 20 21 21 20 20 20 20 19 18 18 17 17 17 16 16 16 16 16 16 15 14 14 13 13 12 11 11
10 9 8 7 7 7 8 9 10 11 12 13 15 16 17 17 18 19 20 21 21 21 21 21 21 20 19 19 19 18 18 18 18 17 17 17 16 15 15 14 14 13 12 12
12 10 9 9 8 8 8 8 9 10 11 13 14 15 16 17 17 18 19 20 20 21 21 21 21 21 20 20 19 18 18 18 18 18 17 17 16 15 15 14 13 13 12 12
14 12 11 10 9 9 9 9 10 10 11 12 13 14 15 16 17 17 18 19 19 20 20 20 20 20 20 19 19 18 18 17 17 17 16 16 15 14 14 13 12 12 11 11
16 14 13 12 11 11 11 10 10 11 11 11 12 13 14 15 16 16 17 17 18 18 19 19 19 19 19 19 18 17 17 17 16 16 15 14 14 13 13 12 12 11 11 11
18 17 15 14 13 12 12 11 11 11 11 12 12 12 13 14 14 15 16 16 16 17 17 18 18 18 18 18 17 17 17 17 16 15 15 14 13 12 12 11 11 11 11 10
20 19 18 16 15 14 13 13 12 12 12 12 12 12 12 13 13 13 14 14 15 15 15 16 16 16 16 16 16 16 15 15 15 15 14 13 13 12 12 11 11 10 10 9

GEFSNGP_500_meanwind_096.txt.gz
Wind_Speed
13 13 13 13 13 14 15 16 18 17 19 21 22 22 23 24 24 25 24 24 25 24 24 23 23 22 21 21 20 20 20 20 21 21 21 21 22 22 21 22 22 23 22 22
13 14 14 13 14 15 15 17 18 19 20 22 23 23 24 24 25 25 25 25 24 23 23 21 21 20 19 19 19 19 19 19 20 21 21 21 22 21 20 21 21 22 23 23
14 14 13 13 13 14 15 17 18 20 21 22 23 24 25 25 25 25 25 24 23 23 21 19 18 18 17 17 17 18 18 19 19 20 20 21 21 21 21 21 20 21 21 21
14 13 13 12 13 14 15 16 18 19 21 22 23 24 25 26 26 25 24 23 22 21 20 18 17 17 16 16 16 16 17 18 19 19 20 19 20 21 20 19 19 19 19 20
13 12 11 11 13 14 15 16 18 20 21 22 24 24 25 25 25 24 22 21 20 19 18 16 15 14 15 15 15 16 16 17 18 18 18 19 18 18 19 18 18 17 17 19
12 11 11 11 12 14 16 16 18 20 21 23 23 24 24 24 23 22 20 19 18 17 16 14 13 11 11 12 13 13 14 15 16 16 17 17 16 16 17 16 16 17 18 18
11 11 11 12 13 14 15 16 18 20 21 22 22 22 22 21 20 19 18 16 15 14 13 11 10 9 9 9 11 12 12 12 12 13 14 15 15 14 14 15 15 16 16 16
11 11 12 12 12 13 15 16 18 20 21 20 20 21 20 19 18 16 15 13 12 12 10 9 8 8 8 8 9 10 11 11 11 11 12 13 12 12 12 13 14 14 14 14
10 10 10 10 11 13 15 17 18 19 19 19 19 19 18 16 15 13 11 10 8 7 7 7 6 6 7 7 7 7 9 10 10 10 10 10 10 11 11 11 11 11 12 13
8 8 9 9 11 13 15 16 17 17 18 18 18 17 15 14 13 10 8 7 5 5 4 5 5 5 5 5 6 6 7 8 9 9 9 10 10 10 10 9 9 9 9 10
7 7 7 8 10 12 14 15 16 16 17 17 16 14 12 11 10 8 6 4 2 1 0 2 3 4 4 4 5 6 6 7 7 8 8 8 7 7 7 7 7 7 7 8
7 7 7 8 9 11 13 14 15 15 15 14 13 12 11 9 8 6 5 3 2 2 2 3 3 3 4 4 4 5 5 5 6 6 6 6 5 5 4 4 4 4 5 5
6 5 5 7 9 10 12 13 13 13 13 13 12 11 10 9 7 5 4 4 4 4 5 5 5 4 4 5 5 5 5 6 6 6 6 6 5 4 3 2 1 1 1 2
6 5 5 6 8 9 11 12 12 12 12 12 12 12 11 9 8 7 6 5 5 5 5 6 6 6 7 6 6 6 6 6 6 6 6 5 4 4 3 2 2 2 2 2
5 5 5 5 6 8 9 10 11 12 12 12 12 12 11 11 10 9 8 7 7 7 7 7 7 7 8 8 8 8 8 8 7 7 6 6 5 5 4 4 4 4 4 4
5 4 3 3 4 6 8 9 10 11 12 12 12 11 11 11 11 10 10 9 8 8 7 8 8 8 8 8 9 9 9 9 9 8 8 7 7 7 6 6 6 6 6 6
4 3 2 1 3 5 7 8 9 10 11 12 12 12 12 12 12 12 11 11 10 10 10 10 10 10 9 10 10 10 10 10 10 10 10 9 9 8 8 8 8 8 8 9
4 3 2 1 2 4 6 8 8 10 11 12 13 13 13 13 13 13 13 13 13 12 12 12 12 11 11 12 12 12 12 12 12 11 11 11 10 10 10 10 10 10 10 10
6 4 3 2 2 4 5 7 8 9 11 12 13 13 13 13 14 14 14 14 14 14 14 14 14 14 13 13 13 14 14 14 13 13 13 12 12 12 12 12 12 12 12 12
6 5 4 4 4 4 5 6 7 9 10 12 13 13 14 14 14 15 15 15 15 15 16 16 16 16 16 16 16 16 16 16 15 15 15 15 15 14 14 13 13 13 12 12
8 7 6 5 5 4 5 6 7 8 9 11 12 13 13 14 14 15 15 16 16 17 17 17 17 17 17 17 17 17 17 17 17 17 17 16 16 16 15 14 14 13 13 13
9 9 8 7 6 6 5 6 6 7 8 10 11 12 13 14 14 15 16 16 17 17 18 18 18 19 19 18 18 19 18 18 18 17 17 16 16 15 15 14 14 13 13 13
11 11 9 8 8 7 6 6 6 6 7 8 10 11 12 13 14 15 16 16 17 17 18 18 18 18 18 18 19 19 18 18 17 17 16 16 15 14 14 14 13 13 12 12
13 13 11 10 9 9 8 7 7 7 7 8 9 10 11 12 14 14 15 16 16 16 17 17 17 18 18 18 17 17 17 17 16 16 16 15 14 14 14 13 13 13 12 12
16 15 14 12 11 11 10 9 8 8 7 8 8 9 10 11 12 13 14 15 15 15 16 16 17 17 17 17 17 16 16 15 15 14 14 14 13 13 13 13 13 12 12 12
18 17 16 15 14 13 12 11 10 9 9 9 9 9 10 10 11 12 13 13 14 14 15 15 16 16 16 16 16 16 15 15 14 14 14 13 13 13 12 12 12 11 11 11
19 19 18 17 16 15 14 13 12 11 10 10 10 9 9 10 10 11 11 12 12 13 13 13 14 14 14 14 14 14 14 14 13 13 13 13 12 12 12 11 11 11 11 11

GEFSNGP_500_meanwind_102.txt.gz
Wind_Speed
14 15 14 14 14 14 14 15 15 16 18 19 20 21 22 23 25 25 26 27 27 27 27 26 26 26 25 25 24 24 23 23 22 22 21 21 21 21 21 21 20 21 23 23
13 13 13 13 14 14 15 15 16 17 19 20 21 22 23 25 26 27 27 27 27 27 27 26 26 25 25 24 23 22 22 22 21 20 19 20 20 20 20 20 20 20 20 21
13 13 12 13 14 14 15 15 17 18 20 21 22 23 25 26 27 27 27 27 27 27 26 25 24 23 22 21 21 20 20 20 20 19 19 19 20 21 20 20 20 20 19 20
12 12 12 13 13 14 15 16 18 19 20 22 24 25 26 27 28 27 27 26 26 25 24 23 22 20 19 18 18 17 17 17 18 18 17 17 17 18 18 18 18 18 19 19
11 12 12 13 13 14 15 17 18 20 22 23 25 26 27 27 27 26 25 25 24 23 21 20 19 18 16 15 15 15 14 15 15 15 15 15 16 16 18 18 18 19 19 18
10 11 11 12 12 13 15 17 18 20 22 24 25 27 27 26 26 25 24 23 21 20 18 17 15 14 13 12 11 12 12 13 14 13 13 14 15 15 15 15 16 16 16 16
10 11 11 12 11 12 14 17 19 21 23 24 25 26 26 25 24 23 21 19 18 16 15 13 12 10 9 8 8 8 9 10 11 12 12 13 13 14 13 13 12 13 12 12
9 10 11 11 12 13 15 17 19 21 22 23 24 24 24 23 22 20 18 16 14 12 10 9 8 7 6 5 6 6 7 8 10 10 11 11 11 12 12 11 10 10 11 11
9 10 9 10 11 13 15 17 19 21 22 22 23 22 22 21 19 17 14 12 10 8 7 6 5 5 4 3 4 5 6 7 9 9 9 8 9 9 9 9 9 8 8 8
8 8 9 9 11 13 15 17 19 20 21 21 21 20 19 18 15 13 10 8 6 5 3 2 2 3 3 3 3 5 6 7 8 8 8 8 8 7 7 7 7 7 6 5
8 7 8 9 10 13 15 17 18 19 20 19 18 17 16 13 12 10 7 5 3 2 2 2 2 3 3 4 5 5 6 8 8 8 8 7 7 7 6 5 5 5 5 4
7 7 7 8 10 12 14 16 17 18 17 17 15 14 13 11 10 8 6 4 3 3 3 3 3 4 5 6 6 7 8 8 8 9 8 8 7 7 6 5 4 3 3 3
5 6 6 7 9 11 13 15 15 16 15 14 13 12 11 10 9 8 6 5 5 5 5 5 6 6 7 8 9 9 9 9 9 9 9 8 8 7 6 5 4 3 2 1
5 5 6 7 9 11 12 13 14 14 13 13 12 11 10 9 8 7 7 6 6 6 7 7 8 9 9 10 11 10 10 10 10 10 10 9 8 7 7 6 6 5 5 5
4 5 6 7 8 9 11 12 12 12 12 12 12 11 10 10 9 8 8 8 8 8 8 9 10 10 11 11 11 11 12 12 12 12 11 10 10 9 9 9 8 8 8 8
3 3 4 6 7 7 8 9 10 11 11 11 11 11 10 10 10 10 10 9 9 9 10 10 11 11 11 11 12 12 13 13 12 12 12 12 11 11 11 10 10 10 10 10
2 3 3 4 5 6 6 8 9 10 10 11 11 11 11 10 10 11 11 11 11 12 12 12 12 12 12 12 13 13 13 13 13 13 13 13 13 12 12 12 12 12 12 12
2 2 3 3 3 4 5 6 8 9 10 11 11 11 11 11 11 11 11 11 11 12 12 12 13 13 13 14 14 14 15 15 14 14 14 13 14 14 14 13 13 13 13 12
2 1 2 2 3 3 4 5 7 8 9 10 11 11 11 11 11 11 12 12 12 12 13 13 14 14 15 15 16 16 16 15 15 15 14 14 15 15 15 14 14 14 13 13
2 1 1 1 2 3 4 5 6 7 8 9 10 11 11 11 11 12 13 13 14 14 14 14 15 15 16 16 16 16 16 16 16 16 15 16 16 15 15 15 14 14 14 13
3 2 1 1 1 2 3 4 5 6 7 8 9 10 10 11 11 12 12 13 13 14 14 14 15 15 16 16 16 17 17 17 17 17 17 16 16 16 15 15 15 14 14 13
5 4 3 2 1 1 2 3 4 5 6 7 8 9 9 10 11 11 12 12 13 13 14 14 15 16 16 16 17 17 17 17 17 17 17 16 16 15 15 15 14 14 13 13
6 6 5 5 3 2 1 1 2 3 4 5 6 8 9 9 10 11 12 12 13 14 14 15 15 16 16 17 17 17 17 17 16 16 16 16 15 15 14 14 14 13 13 12
8 8 8 7 6 5 3 3 2 2 3 4 5 6 7 9 10 11 11 12 13 14 15 15 16 16 16 17 17 16 16 16 16 15 15 15 15 14 14 13 13 13 12 12
10 9 9 9 8 7 5 4 4 3 3 3 4 6 7 8 9 10 11 12 12 13 14 14 15 15 16 16 16 16 15 15 15 15 15 14 14 13 13 12 12 12 11 11
12 12 11 11 10 9 8 7 6 5 5 4 4 5 7 8 9 9 10 11 12 12 13 13 14 14 14 14 14 14 14 14 14 13 13 13 12 12 12 11 11 10 10 10
15 15 14 13 12 11 10 9 8 8 7 6 6 6 6 7 8 9 9 10 10 11 11 12 12 12 12 12 12 12 12 12 12 12 12 11 11 10 10 9 9 9 8 8

GEFSNGP_500_meanwind_108.txt.gz
Wind_Speed
13 12 11 11 11 12 13 15 18 21 22 22 22 23 24 26 27 27 28 29 30 30 31 31 31 31 30 29 28 28 28 27 27 27 25 25 24 23 22 22 22 21 20 20
13 13 12 11 12 14 15 16 18 21 23 23 24 25 27 28 28 28 28 29 30 30 30 30 30 29 28 27 26 26 26 26 26 25 24 23 22 22 21 20 20 19 18 17
13 12 11 12 12 13 15 17 19 21 23 23 25 27 28 28 29 29 29 30 30 30 29 29 28 27 26 25 24 24 24 24 23 23 22 21 21 20 19 18 18 18 17 16
13 13 13 12 13 14 16 18 19 21 23 24 25 27 28 28 29 30 30 29 29 29 28 27 25 24 23 22 22 21 21 21 20 19 18 18 17 18 17 17 16 15 14 14
12 12 12 12 14 14 16 18 20 21 23 25 27 28 27 28 28 29 29 28 28 27 25 24 23 22 20 19 18 18 17 16 15 15 15 14 13 14 14 14 15 14 13 13
12 13 14 13 13 14 17 19 19 21 22 25 26 28 28 28 28 28 27 26 25 24 22 21 19 19 17 16 15 14 13 12 12 12 12 12 11 10 11 12 12 13 12 12
11 12 14 14 12 14 16 18 21 22 23 25 26 27 27 27 26 25 24 23 22 20 19 17 16 15 14 13 12 11 9 9 9 9 9 10 10 9 9 10 11 10 10 10
11 12 13 13 13 16 18 20 22 23 24 25 25 26 26 25 24 23 22 20 18 16 15 14 13 11 10 9 8 8 7 7 8 8 7 8 9 8 8 8 8 8 8 8
10 11 12 13 14 15 18 20 21 22 24 24 25 24 24 23 22 21 19 17 15 13 12 10 9 8 7 6 5 5 5 5 6 6 7 7 7 8 7 6 6 6 6 6
9 10 11 12 13 15 17 19 21 22 23 23 23 22 22 20 19 17 15 13 12 10 8 7 6 5 4 3 1 2 4 5 6 6 7 7 6 5 5 6 6 5 4 4
9 9 10 11 13 15 17 18 20 22 21 21 21 20 19 18 16 14 12 10 9 7 5 4 4 3 2 0 2 5 5 6 7 6 6 6 5 5 5 5 4 4 3 2
8 9 11 12 13 15 16 18 19 19 19 19 18 17 16 14 13 12 10 8 6 4 3 2 2 2 2 4 5 7 7 7 7 7 6 6 6 6 6 5 4 4 3 3
7 9 10 12 13 14 15 16 17 17 17 17 16 15 14 12 11 10 9 7 6 5 3 3 3 4 5 6 7 7 8 8 8 7 7 7 7 6 6 5 5 6 6 5
7 9 10 10 11 12 13 14 15 16 15 14 13 13 12 11 10 9 8 7 6 5 4 4 5 5 7 8 8 8 9 9 9 8 8 8 8 7 7 7 8 8 8 7
7 8 9 9 10 11 12 13 14 14 14 13 12 12 11 11 10 9 8 8 7 7 6 6 6 7 7 8 9 9 9 9 9 9 9 9 9 9 9 10 10 10 10 10
8 8 8 8 9 10 11 11 12 13 13 12 12 11 11 10 10 9 9 9 8 8 8 8 8 7 8 9 10 10 9 9 10 10 10 10 11 11 12 12 12 12 12 12
7 7 7 7 8 9 10 10 11 12 12 12 11 11 11 11 10 10 10 9 9 9 9 9 9 9 10 10 10 10 11 11 12 12 12 13 13 14 14 14 14 14 14 14
6 6 7 7 7 8 9 10 11 11 12 11 10 11 11 11 11 11 10 10 10 10 11 11 11 11 11 12 12 13 14 14 14 14 14 14 14 14 14 14 14 14 14 14
5 6 6 7 7 8 8 9 10 11 11 11 10 10 10 11 11 11 11 11 11 11 12 12 12 13 14 14 14 14 15 15 15 15 14 14 14 14 14 14 14 14 14 14
5 5 6 6 6 7 7 8 9 10 10 11 10 9 10 10 10 10 11 11 11 11 12 12 13 14 14 14 14 15 15 15 15 15 14 15 15 15 15 15 15 15 15 14
4 5 5 6 6 6 7 6 7 9 10 10 10 10 10 10 10 10 10 10 11 11 12 12 13 13 13 14 14 14 15 15 15 15 15 15 15 15 15 15 15 14 14 14
4 4 5 5 5 6 6 5 6 7 8 9 9 9 10 10 10 10 9 9 10 10 10 11 11 12 12 13 13 13 14 15 14 14 15 15 14 14 14 14 14 14 13 13
5 5 5 4 5 5 4 4 4 5 6 7 8 8 8 9 9 9 9 9 9 9 10 10 10 11 11 12 12 13 13 14 14 14 14 14 14 14 14 13 13 13 13 13
6 6 5 5 4 3 2 2 3 3 4 5 6 7 7 7 7 8 8 8 8 8 9 10 10 11 11 12 12 12 13 13 13 13 13 13 13 13 13 13 12 12 12 12
8 7 7 6 5 4 3 2 2 1 1 2 3 4 5 5 6 6 7 7 7 7 8 9 10 10 11 11 11 12 12 13 12 12 12 12 11 11 11 11 10 10 10 9
10 9 8 8 7 6 5 4 3 3 2 1 0 1 2 3 4 5 5 6 7 7 8 9 10 10 10 10 10 11 11 10 10 10 10 10 10 9 9 8 8 7 7 7
12 11 10 10 10 9 8 7 6 5 5 4 3 2 1 2 2 3 4 5 6 6 7 8 8 8 8 8 8 8 8 8 8 8 8 8 8 7 7 6 6 6 6 6

GEFSNGP_500_meanwind_114.txt.gz
Wind_Speed
13 14 15 17 17 17 17 17 17 17 18 18 19 20 20 20 21 24 24 25 26 26 27 27 28 28 28 28 28 28 28 27 26 26 26 25 25 24 23 23 22 21 20 19
13 14 15 16 17 17 18 18 17 18 18 18 20 20 21 22 24 25 26 27 27 27 27 27 27 28 28 27 27 27 26 25 25 25 24 23 23 23 22 21 20 19 18 18
14 15 15 16 16 17 17 17 18 18 19 21 22 21 22 24 25 26 26 27 27 27 27 27 27 27 26 25 25 24 24 23 23 22 22 22 21 21 20 19 18 17 16 15
14 14 15 15 16 16 16 17 17 19 20 21 21 22 23 25 26 27 27 27 27 27 27 26 26 25 24 23 23 22 21 20 20 19 18 18 18 17 16 16 16 15 15 14
11 12 12 13 14 14 15 17 17 18 19 20 21 23 25 26 26 26 26 26 26 26 25 24 23 23 22 21 20 19 18 17 16 15 14 13 12 12 12 12 12 12 12 11
9 10 10 10 12 13 14 14 16 18 19 20 22 24 24 25 25 25 25 25 24 24 22 22 21 20 19 18 17 16 15 14 13 11 10 8 8 8 8 8 8 9 10 10
8 9 9 9 10 11 12 14 16 17 19 21 22 23 24 24 25 23 23 22 22 21 20 19 18 17 16 15 14 13 12 10 9 7 5 5 5 5 6 6 7 8 8 9
6 7 8 8 9 11 12 14 16 18 19 21 22 22 23 23 23 22 21 20 20 18 17 16 15 13 12 10 10 9 8 6 5 4 3 3 3 4 5 6 7 7 7 7
4 5 7 8 9 10 13 15 16 18 20 20 21 21 20 20 20 19 18 17 16 13 12 12 11 9 7 6 6 5 4 3 3 3 3 4 4 4 5 6 7 7 7 6
4 6 7 8 9 12 14 15 16 17 18 18 19 18 18 18 17 16 15 14 12 10 10 9 8 6 4 4 3 1 0 2 3 4 5 5 5 6 6 6 6 6 5 5
4 5 6 8 10 12 13 14 15 16 18 18 18 18 17 15 15 14 12 11 10 8 8 6 5 4 3 2 1 2 3 4 5 6 6 6 6 6 6 6 6 6 6 6
5 6 7 9 10 11 12 13 14 16 16 17 16 15 14 13 12 12 11 9 8 8 6 5 4 4 4 4 4 5 6 7 7 7 7 7 8 8 7 7 7 7 7 8
6 7 8 9 10 11 12 13 14 14 15 15 14 13 13 12 11 10 9 8 8 7 6 6 5 5 5 7 8 8 9 9 10 10 9 9 9 9 9 9 10 10 10 10
7 8 9 10 11 11 12 13 13 13 13 13 13 12 12 11 10 10 9 8 8 8 8 8 8 8 8 9 10 11 11 12 12 11 11 11 11 11 11 11 12 12 12 12
8 8 9 10 11 11 12 12 13 13 13 13 12 12 11 10 10 9 8 8 9 9 9 9 10 10 10 11 11 12 12 12 12 12 12 12 13 13 14 14 15 15 15 14
8 8 9 9 10 11 11 11 12 12 12 12 12 12 12 11 10 9 9 9 9 9 10 10 11 11 11 12 12 13 13 13 13 13 13 14 14 15 16 17 17 16 16 16
8 9 9 9 10 11 10 10 11 11 11 11 12 12 12 12 11 11 10 10 10 10 11 11 11 12 13 13 13 14 14 14 14 14 14 14 15 17 17 17 17 17 17 17
8 9 9 9 10 10 10 10 10 10 10 11 11 12 12 12 12 12 12 12 12 11 11 12 12 13 13 14 14 15 15 14 15 15 15 16 17 17 17 18 18 18 18 18
8 8 9 9 10 10 10 10 10 10 10 10 11 12 12 13 13 13 13 13 13 13 13 13 14 14 14 14 14 15 15 15 15 16 17 18 18 18 18 18 18 18 18 18
7 8 9 9 10 10 10 10 10 10 9 9 10 11 12 12 13 13 13 13 13 14 14 14 14 15 15 15 15 16 16 16 17 17 18 18 18 18 18 18 18 17 17 17
6 7 8 8 9 9 9 10 10 10 9 9 9 9 10 11 12 12 12 12 13 13 13 14 14 15 15 15 15 15 16 16 17 17 17 17 17 17 16 16 16 16 16 16
5 6 6 7 8 8 8 8 9 9 9 8 8 8 9 10 10 10 11 11 11 12 12 12 13 13 13 14 14 14 15 15 16 16 16 16 16 15 15 15 15 15 15 15
4 4 5 6 6 7 7 7 7 8 8 7 7 7 7 8 9 9 9 10 10 10 11 11 12 12 12 12 13 14 14 13 14 14 15 14 14 14 15 14 14 14 14 14
5 4 5 5 5 5 5 5 6 6 6 5 5 5 6 6 7 8 8 8 8 9 9 10 11 11 11 12 12 13 13 13 13 13 13 14 13 13 13 13 13 13 12 12
6 6 6 6 5 5 5 4 4 4 4 4 3 3 4 5 5 6 6 7 7 8 8 9 10 11 11 11 11 12 11 12 12 11 11 11 12 12 12 12 11 11 10 10
8 7 7 7 6 6 5 4 4 3 3 2 2 2 2 2 3 4 5 5 6 6 7 8 9 10 10 10 10 10 10 10 10 10 10 10 10 10 10 10 9 9 8 8
9 9 8 8 8 7 6 6 5 5 4 4 3 2 1 1 2 2 3 3 4 5 6 7 8 8 8 8 9 9 9 9 9 9 9 9 10 9 9 8 8 7 7 6

GEFSNGP_500_meanwind_120.txt.gz
Wind_Speed
14 15 15 14 15 15 15 16 16 15 16 16 17 18 18 19 21 22 22 23 24 25 25 26 26 26 27 27 27 27 26 26 26 26 26 25 25 25 25 24 24 24 24 24
13 14 14 14 13 14 15 15 16 17 17 18 19 20 20 21 22 23 24 24 25 25 26 26 27 27 27 26 26 25 25 25 24 24 24 23 23 23 23 22 22 22 21 21
13 13 14 14 14 14 15 16 17 17 18 20 21 21 22 23 23 24 25 25 25 26 26 26 26 26 26 25 24 24 24 24 23 23 23 22 21 21 20 20 19 19 18 18
12 12 13 13 14 14 15 16 17 18 19 20 21 22 22 23 24 25 25 25 24 25 25 25 25 25 24 23 23 23 23 22 22 22 20 19 19 18 17 17 17 17 16 15
11 11 11 12 12 13 14 15 16 17 19 20 21 21 22 23 24 24 24 23 24 24 23 23 23 23 22 22 22 21 21 20 19 18 17 16 15 14 14 14 14 14 14 13
8 9 10 10 11 12 13 14 15 17 18 19 20 20 21 22 22 22 22 21 21 21 22 22 21 20 20 20 19 18 18 17 16 15 14 12 11 10 10 10 10 10 10 11
7 7 8 9 10 12 12 13 15 16 17 19 20 21 21 21 21 20 20 20 20 20 20 20 19 18 17 17 16 15 14 13 12 10 9 8 7 7 6 6 7 8 8 9
5 6 6 8 9 10 12 14 15 17 18 19 20 20 20 20 20 19 19 18 18 17 17 15 14 14 13 12 11 11 10 9 8 6 5 5 5 4 4 5 5 6 7 7
3 5 6 7 9 11 13 15 16 18 19 19 19 19 19 18 18 18 17 16 16 15 14 13 12 11 10 9 8 8 7 5 4 3 3 3 3 4 4 4 4 5 5 6
3 4 5 7 9 11 13 14 16 17 17 17 18 17 16 17 17 17 15 14 13 12 11 10 9 8 7 6 5 4 3 2 2 2 3 3 3 3 3 4 5 5 5 6
4 5 6 7 9 11 13 14 14 15 15 16 16 15 14 14 14 14 13 11 9 9 8 7 7 6 5 4 2 0 1 2 2 3 4 4 5 5 5 5 5 6 6 7
5 6 7 8 10 11 13 13 14 14 15 15 15 14 13 13 12 11 10 9 7 7 6 5 5 4 4 3 2 3 3 4 5 5 6 6 6 6 6 7 7 8 8 8
6 7 8 9 10 11 12 13 13 13 14 14 13 12 12 12 11 9 8 7 7 6 5 5 5 4 4 4 5 6 5 5 5 6 7 8 8 8 8 8 9 9 10 10
7 8 9 10 10 11 12 12 12 12 12 13 12 12 12 11 10 9 8 7 7 6 6 6 6 6 6 6 7 6 7 7 7 9 10 10 9 9 9 10 10 11 12 12
8 9 9 10 11 11 11 11 11 11 12 13 13 12 12 11 10 9 8 8 8 8 8 8 8 8 9 9 9 8 8 9 9 10 11 11 11 11 11 11 11 12 13 13
8 9 9 10 10 11 11 11 11 11 12 13 13 12 12 11 11 10 9 9 8 8 9 9 9 9 9 10 10 10 10 10 11 11 12 12 12 12 12 13 13 14 14 14
8 9 9 10 10 10 11 10 10 10 11 12 13 12 12 12 11 10 9 9 8 8 9 9 9 9 9 10 11 11 12 13 14 14 13 13 13 14 15 15 15 15 15 14
8 9 9 9 9 10 10 10 9 9 10 11 12 12 12 11 11 11 10 10 9 9 9 9 10 10 10 12 12 13 13 14 14 14 14 14 14 15 16 16 16 15 15 15
8 8 9 9 9 9 10 10 9 9 10 10 11 12 11 11 11 11 10 10 10 10 11 11 11 12 12 12 13 13 13 13 13 13 13 14 14 14 15 15 15 15 14 15
7 8 8 9 9 9 9 10 9 9 9 9 10 11 11 10 10 10 10 10 10 11 11 11 11 11 12 12 12 12 12 12 12 13 13 13 14 14 14 14 14 14 14 14
6 7 7 8 8 9 9 9 9 9 9 9 10 10 11 10 10 10 10 10 10 11 11 11 10 11 11 11 11 11 12 12 12 12 13 13 13 13 13 13 13 13 13 13
5 6 7 7 8 8 9 9 9 9 8 8 8 9 9 10 10 9 9 9 9 9 9 9 10 10 10 10 10 11 11 11 11 11 11 12 12 12 12 12 11 11 11 11
5 5 6 7 7 7 8 8 8 8 8 8 8 8 8 8 8 8 8 8 7 7 8 8 8 8 8 9 9 9 9 9 9 9 10 10 9 9 9 9 9 9 9 9
6 5 5 6 6 6 7 8 7 7 7 7 7 7 7 7 7 6 6 6 6 5 5 6 6 7 7 7 7 7 7 7 7 8 8 7 7 8 7 7 8 8 7 7
6 6 6 5 5 5 6 6 6 6 6 6 6 6 6 6 5 5 5 4 4 4 4 4 4 5 5 5 5 5 6 6 6 6 6 6 5 5 5 6 6 6 6 5
7 7 7 6 6 5 5 5 5 5 5 5 5 5 4 4 4 3 3 3 2 2 2 3 3 3 3 4 4 4 4 4 4 4 4 4 4 5 5 5 5 5 5 5
9 9 8 8 7 7 7 6 6 6 6 5 5 4 4 3 3 2 2 1 1 1 0 1 2 2 2 3 4 4 4 4 4 4 4 5 5 5 6 6 6 6 6 6